CW6406 Weather Reports


time (UTC)temp
C
wind
direction
speed
KPH
gust
KPH
rain 1hr
cm
rain 24hr
cm
rain mn
cm
humidity
%
barometer
mb
20260507174523 12 360 0.0 8.0 0.00 0.05 0.05 65 1009.7
20260507173048 12 360 1.6 8.0 0.03 0.05 0.05 63 1009.8
20260507171505 12 360 0.0 6.4 0.03 0.05 0.05 63 1010.1
20260507170058 12 360 0.0 6.4 0.03 0.05 0.05 67 1010.1
20260507164517 12 360 0.0 4.8 0.03 0.05 0.05 67 1010.2
20260507163028 12 360 1.6 9.7 0.00 0.03 0.03 60 1010.3
20260507161554 12 360 3.2 8.0 0.00 0.03 0.03 57 1010.7
20260507160054 12 360 3.2 11.3 0.00 0.03 0.03 60 1010.9
20260507154516 13 360 3.2 9.7 0.00 0.03 0.03 61 1010.9
20260507153100 13 360 0.0 9.7 0.00 0.03 0.03 65 1010.7
20260507151515 13 360 0.0 9.7 0.00 0.03 0.03 67 1010.5
20260507150018 13 360 1.6 9.7 0.00 0.13 0.03 69 1010.7
20260507144546 13 360 1.6 8.0 0.00 0.13 0.03 72 1010.8
20260507143104 13 360 1.6 8.0 0.00 0.13 0.03 74 1011.0
20260507141509 13 360 3.2 9.7 0.00 0.13 0.03 76 1010.9
20260507140017 12 360 3.2 11.3 0.00 0.13 0.03 77 1011.2
20260507134548 12 360 0.0 9.7 0.00 0.25 0.03 78 1011.4
20260507133012 12 360 0.0 11.3 0.00 0.25 0.03 80 1011.1
20260507131546 12 360 0.0 4.8 0.00 0.25 0.03 80 1011.1
20260507130043 12 360 0.0 6.4 0.00 0.28 0.03 80 1010.8
20260507124514 12 360 1.6 6.4 0.00 0.28 0.03 79 1010.8
20260507123034 12 360 0.0 4.8 0.00 0.28 0.03 82 1010.8
20260507121559 12 360 0.0 4.8 0.00 0.28 0.03 81 1010.6
20260507120057 12 360 0.0 3.2 0.00 0.28 0.03 81 1010.8
20260507114510 12 360 1.6 4.8 0.00 0.30 0.03 81 1010.3
20260507113027 12 360 0.0 6.4 0.00 0.30 0.03 83 1010.3
20260507111558 12 360 0.0 4.8 0.00 0.30 0.03 84 1010.1
20260507110059 12 360 0.0 4.8 0.00 0.30 0.03 85 1010.2
20260507104512 11 360 0.0 4.8 0.00 0.30 0.03 87 1010.0
20260507103044 11 360 0.0 3.2 0.00 0.30 0.03 88 1009.8
20260507101504 11 360 0.0 6.4 0.00 0.30 0.03 89 1009.8
20260507100016 12 360 0.0 6.4 0.00 0.30 0.03 89 1009.4
20260507094536 12 360 0.0 1.6 0.00 0.30 0.03 90 1009.4
20260507093014 12 360 0.0 3.2 0.00 0.30 0.03 89 1009.9
20260507091534 12 360 0.0 6.4 0.00 0.30 0.03 89 1009.9
20260507090032 12 360 0.0 8.0 0.00 0.30 0.03 88 1009.7
20260507084548 12 360 0.0 3.2 0.00 0.30 0.03 89 1009.9
20260507083018 12 360 0.0 3.2 0.00 0.30 0.03 89 1009.6
20260507081535 13 360 1.6 8.0 0.00 0.30 0.03 89 1009.3
20260507080049 13 360 1.6 12.9 0.00 0.30 0.03 90 1009.6
20260507074513 13 360 0.0 4.8 0.00 0.30 0.03 93 1009.1
20260507073032 13 360 0.0 6.4 0.00 0.30 0.03 93 1008.6
20260507071606 13 360 1.6 6.4 0.00 0.30 0.03 93 1008.5
20260507064527 14 360 0.0 6.4 0.00 0.30 0.03 93 1008.7
20260507063047 14 360 0.0 9.7 0.00 0.30 0.03 92 1008.6
20260507061515 15 360 1.6 6.4 0.00 0.30 0.03 93 1008.5
20260507060003 16 360 0.0 6.4 0.03 0.30 0.03 94 1008.6
20260507054522 17 360 0.0 4.8 0.03 0.30 0.03 93 1007.2
20260507053051 17 360 0.0 3.2 0.03 0.30 0.03 93 1007.3
20260507051512 18 360 0.0 0.0 0.03 0.30 0.03 92 1007.1
20260507050034 18 360 0.0 3.2 0.00 0.28 0.00 91 1007.8
20260507044546 18 360 0.0 6.4 0.00 0.28 0.00 90 1008.0
20260507043007 18 360 1.6 8.0 0.00 0.28 0.00 89 1007.9
20260507041537 18 360 0.0 8.0 0.00 0.28 0.00 89 1007.8
20260507040041 18 360 0.0 4.8 0.00 0.28 0.00 88 1007.6
20260507034551 18 360 0.0 4.8 0.00 0.28 0.28 88 1008.0
20260507033016 18 360 0.0 4.8 0.00 0.28 0.28 88 1008.0
20260507031539 18 360 0.0 3.2 0.00 0.28 0.28 88 1007.6
20260507030045 18 360 0.0 1.6 0.00 0.28 0.28 87 1007.9
20260507024516 18 360 0.0 4.8 0.00 0.28 0.28 87 1008.0
20260507023035 18 360 0.0 6.4 0.00 0.28 0.28 86 1007.4
20260507021634 18 360 0.0 4.8 0.00 0.28 0.28 87 1007.2
20260507020109 18 360 0.0 6.4 0.00 0.28 0.28 87 1007.3
20260507014521 18 360 0.0 8.0 0.00 0.28 0.28 87 1007.5
20260507013048 18 360 0.0 4.8 0.00 0.28 0.28 87 1007.7
20260507011517 18 360 0.0 3.2 0.00 0.28 0.28 86 1007.6
20260507010028 19 360 0.0 3.2 0.00 0.28 0.28 86 1007.6
20260507004548 19 360 1.6 6.4 0.00 0.28 0.28 86 1007.5
20260507003010 19 360 0.0 4.8 0.00 0.28 0.28 85 1007.3
20260507001544 19 360 0.0 4.8 0.00 0.28 0.28 83 1007.2
20260507000048 20 360 0.0 8.0 0.00 0.28 0.28 82 1007.2
20260506234605 20 360 0.0 4.8 0.00 0.28 0.28 82 1007.4
20260506233013 20 360 0.0 6.4 0.00 0.28 0.28 81 1007.5
20260506231524 21 360 0.0 11.3 0.00 0.28 0.28 79 1007.0
20260506230032 21 360 1.6 11.3 0.00 0.28 0.28 77 1007.1
20260506224505 21 360 1.6 6.4 0.00 0.28 0.28 77 1007.1
20260506223022 21 360 0.0 6.4 0.00 0.28 0.28 78 1007.0
20260506221601 21 360 3.2 11.3 0.00 0.28 0.28 78 1007.0
20260506220059 21 360 0.0 12.9 0.00 0.28 0.28 79 1007.2
20260506214520 21 360 3.2 8.0 0.00 0.28 0.28 79 1006.8
20260506213054 21 360 4.8 17.7 0.00 0.28 0.28 78 1006.8
20260506211508 21 360 3.2 17.7 0.00 0.28 0.28 78 1007.0
20260506210031 21 360 0.0 12.9 0.00 0.28 0.28 78 1006.9
20260506204542 21 360 4.8 14.5 0.00 0.28 0.28 77 1007.1
20260506203054 21 360 3.2 11.3 0.00 0.28 0.28 76 1007.0
20260506203001 21 360 3.2 11.3 0.00 0.28 0.28 77 1007.0
20260506201514 21 360 3.2 11.3 0.00 0.28 0.28 77 1007.1
20260506200030 21 360 3.2 17.7 0.00 0.28 0.28 79 1006.8
20260506194540 20 360 3.2 14.5 0.00 0.28 0.28 82 1007.1
20260506193100 18 360 4.8 9.7 0.00 0.28 0.28 83 1007.1
20260506193002 18 360 3.2 9.7 0.00 0.28 0.28 83 1007.2
20260506191520 18 360 4.8 12.9 0.00 0.28 0.28 83 1007.2
20260506190026 18 360 6.4 20.9 0.00 0.28 0.28 81 1007.5
20260506184557 18 360 4.8 11.3 0.00 0.28 0.28 83 1007.7
20260506184502 18 360 4.8 11.3 0.00 0.28 0.28 83 1007.7
20260506183024 18 360 4.8 12.9 0.00 0.28 0.28 83 1007.7
20260506181607 18 360 4.8 11.3 0.00 0.28 0.28 86 1007.9
20260506180044 18 360 1.6 11.3 0.00 0.28 0.28 86 1007.9